Walla Walla, WA

4:16 AM PDT on May 26, 2017 (GMT -0700)
Walla Walla Regional

Weather History for KALW - March, 2014

Change the Weather History Date:

Monday, March 10, 2014

  Actual Average Record
Temperature  
Mean Temperature 49 °F 45 °F  
Max Temperature 54 °F 53 °F 77 °F (2015)
Min Temperature 43 °F 36 °F 24 °F (1958)
Degree Days  
Heating Degree Days 16 20  
Month to date heating degree days 216  
Since 1 July heating degree days 3993  
Cooling Degree Days 0 0  
Month to date cooling degree days 0  
Year to date cooling degree days 0  
Moisture  
Dew Point 41 °F    
Average Humidity 71    
Maximum Humidity 86    
Minimum Humidity 54    
Precipitation  
Precipitation 0.07 in 0.07 in 0.79 in (1990)
Month to date precipitation 0.71  
Year to date precipitation 5.00  
Snow  
Snow 0.00 in 0.00 in 0.00 in (2002)
Month to date snowfall 0.5  
Year to date snowfall 5.5  
Since 1 July snowfall 11.2  
Snow Depth -    
Sea Level Pressure  
Sea Level Pressure 30.03 in    
Wind  
Wind Speed 14 mph (SW)    
Max Wind Speed 21 mph    
Max Gust Speed 26 mph    
Visibility 10 miles    
Events Rain    
T = Trace of Precipitation, MM = Missing Value Source: NWS Daily Summary

Daily Weather History Graph

Daily Weather History Graph

Search for Another Location

Airport or City:

Trip Planner

Search our weather history database for the weather conditions in past years. The results will help you decide how hot, cold, wet, or windy it might be!

Date:

Astronomy

Mar. 10, 2014 Rise Set
Actual Time 7:15 AM PDT 6:52 PM PDT
Civil Twilight 6:45 AM PDT 7:22 PM PDT
Nautical Twilight 6:10 AM PDT 7:56 PM PDT
Astronomical Twilight 5:35 AM PDT 8:32 PM PDT
Moon 1:27 PM PDT (3/10) 3:43 AM PDT (3/10)
Length of Visible Light 12h 36m
Length of Day
11h 37m
Waxing Gibbous, 71% of the Moon is Illuminated
Mar 10
Waxing Gibbous
Mar 16
Full
Mar 23
Last Quarter
Mar 30
New
Apr 7
First Quarter

Hourly Weather History & Observations

Time (PDT) Temp. Windchill Dew Point Humidity Pressure Visibility Wind Dir Wind Speed Gust Speed Precip Events Conditions
12:53 AM 52.0 °F - 45.0 °F 77% 29.92 in 10.0 mi South 13.8 mph - 0.00 in Rain Light Rain
1:53 AM 52.0 °F - 43.0 °F 71% 29.92 in 10.0 mi South 15.0 mph - 0.00 in Rain Light Rain
2:53 AM 51.1 °F - 44.1 °F 77% 29.91 in 10.0 mi South 12.7 mph - 0.00 in Rain Light Rain
3:53 AM 50.0 °F - 44.1 °F 80% 29.91 in 10.0 mi South 10.4 mph - 0.03 in Rain Light Rain
4:53 AM 48.9 °F - 45.0 °F 86% 29.92 in 9.0 mi SSW 15.0 mph - 0.00 in Rain Light Rain
5:53 AM 48.0 °F - 44.1 °F 86% 29.92 in 10.0 mi South 12.7 mph - 0.02 in Rain Light Rain
6:53 AM 48.0 °F - 43.0 °F 83% 29.92 in 10.0 mi South 16.1 mph - 0.00 in   Overcast
7:53 AM 48.9 °F - 39.9 °F 71% 29.93 in 10.0 mi SSW 15.0 mph - N/A   Overcast
8:34 AM 48.9 °F - 39.9 °F 71% 29.93 in 10.0 mi SW 13.8 mph - N/A   Overcast
8:53 AM 48.9 °F - 39.9 °F 71% 29.94 in 10.0 mi SSW 17.3 mph 26.5 mph N/A   Overcast
9:01 AM 48.9 °F - 39.9 °F 71% 29.94 in 10.0 mi SW 18.4 mph 25.3 mph N/A   Overcast
9:53 AM 48.9 °F - 41.0 °F 74% 29.96 in 10.0 mi SW 17.3 mph - N/A   Overcast
10:53 AM 48.9 °F - 41.0 °F 74% 29.99 in 10.0 mi WSW 18.4 mph - 0.00 in   Overcast
11:53 AM 51.1 °F - 41.0 °F 68% 29.99 in 10.0 mi WSW 17.3 mph 24.2 mph 0.00 in   Overcast
12:31 PM 51.1 °F - 39.9 °F 66% 30.00 in 10.0 mi WSW 16.1 mph - N/A   Overcast
12:53 PM 51.1 °F - 41.0 °F 68% 30.01 in 10.0 mi West 16.1 mph 23.0 mph 0.02 in Rain Light Rain
1:04 PM 51.1 °F - 42.1 °F 71% 30.00 in 9.0 mi West 13.8 mph - 0.00 in Rain Light Rain
1:53 PM 52.0 °F - 41.0 °F 66% 30.02 in 10.0 mi West 9.2 mph - 0.00 in   Overcast
2:53 PM 51.1 °F - 42.1 °F 71% 30.03 in 10.0 mi South 6.9 mph - 0.00 in   Mostly Cloudy
3:53 PM 53.1 °F - 42.1 °F 66% 30.04 in 10.0 mi South 9.2 mph - N/A   Mostly Cloudy
4:53 PM 53.1 °F - 39.9 °F 61% 30.07 in 10.0 mi WSW 20.7 mph - N/A   Mostly Cloudy
5:53 PM 53.1 °F - 39.0 °F 59% 30.11 in 10.0 mi SW 12.7 mph - N/A   Overcast
6:53 PM 52.0 °F - 36.0 °F 54% 30.14 in 10.0 mi WSW 15.0 mph 23.0 mph N/A   Overcast
7:53 PM 50.0 °F - 34.0 °F 54% 30.18 in 10.0 mi West 12.7 mph - N/A   Overcast
8:53 PM 48.9 °F - 37.0 °F 64% 30.22 in 10.0 mi SW 13.8 mph - N/A   Overcast
9:53 PM 46.0 °F 40.6 °F 37.0 °F 71% 30.26 in 10.0 mi SSW 11.5 mph - N/A   Overcast
10:53 PM 45.0 °F 39.3 °F 37.0 °F 74% 30.30 in 10.0 mi South 11.5 mph - N/A   Overcast
11:53 PM 43.0 °F 36.0 °F 36.0 °F 76% 30.34 in 10.0 mi South 13.8 mph - N/A   Partly Cloudy